TimeCST,TemperatureF,Dew PointF,Humidity,Sea Level PressureIn,VisibilityMPH,Wind Direction,Wind SpeedMPH,Gust SpeedMPH,PrecipitationIn,Events,Conditions,WindDirDegrees,DateUTC
12:55 AM,61.2,53.2,75,29.81,10.0,SSE,10.4,-,N/A,,Clear,150,2012-11-09 06:55:00
1:55 AM,59.5,53.6,81,29.80,10.0,SSE,8.1,-,N/A,,Clear,150,2012-11-09 07:55:00
3:55 AM,58.1,54.3,87,29.78,10.0,SSE,9.2,-,N/A,,Clear,150,2012-11-09 09:55:00
4:55 AM,59.7,54.0,81,29.78,10.0,SSE,12.7,-,N/A,,Clear,160,2012-11-09 10:55:00
5:55 AM,60.1,52.9,77,29.78,10.0,SSE,12.7,-,N/A,,Clear,160,2012-11-09 11:55:00
6:55 AM,61.7,53.1,73,29.78,10.0,South,17.3,-,N/A,,Scattered Clouds,170,2012-11-09 12:55:00
7:55 AM,63.0,53.4,71,29.80,10.0,South,19.6,-,N/A,,Clear,170,2012-11-09 13:55:00
8:55 AM,64.8,52.9,65,29.81,10.0,South,20.7,31.1,N/A,,Scattered Clouds,170,2012-11-09 14:55:00
9:55 AM,67.3,54.9,64,29.81,10.0,South,17.3,-,N/A,,Partly Cloudy,180,2012-11-09 15:55:00
10:55 AM,72.7,56.5,57,29.79,10.0,South,24.2,32.2,N/A,,Clear,190,2012-11-09 16:55:00
11:55 AM,74.7,57.4,55,29.76,10.0,South,27.6,34.5,N/A,,Clear,180,2012-11-09 17:55:00
12:55 PM,77.5,57.2,49,29.73,10.0,SSE,26.5,31.1,N/A,,Clear,160,2012-11-09 18:55:00
1:55 PM,77.9,57.0,48,29.71,10.0,South,24.2,34.5,N/A,,Clear,170,2012-11-09 19:55:00
2:55 PM,78.4,56.7,47,29.68,10.0,SSE,26.5,33.4,N/A,,Clear,160,2012-11-09 20:55:00
3:55 PM,77.9,55.9,47,29.69,10.0,South,29.9,38.0,N/A,,Clear,170,2012-11-09 21:55:00
4:55 PM,75.9,56.8,51,29.69,10.0,South,28.8,33.4,N/A,,Clear,170,2012-11-09 22:55:00
5:55 PM,73.8,57.0,56,29.70,10.0,South,24.2,-,N/A,,Clear,170,2012-11-09 23:55:00
6:55 PM,72.5,58.1,60,29.71,10.0,South,20.7,31.1,N/A,,Clear,190,2012-11-10 00:55:00
7:55 PM,71.6,59.0,64,29.72,10.0,SSE,21.9,31.1,N/A,,Clear,160,2012-11-10 01:55:00
8:55 PM,70.5,59.4,68,29.72,10.0,SSE,24.2,32.2,N/A,,Clear,160,2012-11-10 02:55:00
9:55 PM,69.8,57.7,65,29.72,10.0,SSE,26.5,33.4,N/A,,Clear,160,2012-11-10 03:55:00
10:55 PM,68.5,57.0,67,29.72,10.0,South,20.7,31.1,N/A,,Clear,170,2012-11-10 04:55:00
11:55 PM,68.5,55.8,64,29.72,10.0,South,24.2,35.7,N/A,,Clear,170,2012-11-10 05:55:00